Vorticity
5 4 6 11 5 2 2 4 4 3 3 4 3 7 6 3 7 5 7 8 6 7 5 5 3 3 -1 -15 -10 3 10 10
5 3 3 5 5 3 3 2 2 2 3 3 4 5 4 2 9 3 7 10 6 7 4 -6 -12 2 14 19 16 9 8 8
7 6 4 3 3 3 3 3 3 2 3 2 3 2 1 4 8 9 3 10 7 3 15 9 10 9 5 14 7 10 10 11
5 4 17 10 6 3 3 2 4 5 5 5 3 -1 5 10 8 8 2 4 8 6 3 -1 2 1 -2 -17 15 4 9 8
1 -1 -3 5 26 14 3 8 7 4 7 9 9 13 11 2 4 5 4 2 1 -1 -1 -3 1 6 -3 7 7 -2 13 7
5 -2 4 3 2 7 4 1 2 12 5 14 9 20 15 3 4 5 2 1 -0 -0 -1 -1 1 2 -3 -4 11 10 10 6
3 8 7 7 3 -0 4 3 6 4 4 7 5 11 7 5 1 0 -0 2 2 1 2 3 -0 1 5 -7 12 15 4 8
9 6 7 7 8 3 14 5 15 -2 8 8 16 10 4 8 3 1 -0 1 2 3 5 7 -2 -3 12 -3 15 17 5 10
8 8 7 3 11 6 11 11 8 11 -1 19 10 2 3 2 5 6 4 6 4 6 4 -1 9 1 -2 11 13 11 14 9
8 15 8 10 5 4 18 5 8 9 4 2 14 14 8 5 7 9 14 5 7 3 2 0 1 18 -1 13 15 12 19 6
11 14 23 19 7 15 11 13 12 6 18 20 14 11 14 12 10 11 9 12 13 9 17 8 18 1 6 23 9 11 14 21
8 17 4 5 14 13 9 13 14 16 10 10 9 3 3 6 10 5 9 18 21 3 6 8 5 9 13 24 12 15 12 3
15 11 3 2 -1 1 2 6 5 6 4 5 2 -0 -1 6 12 11 8 5 7 6 10 8 9 11 19 13 15 14 31 4
3 1 -1 -1 -1 -1 1 3 5 3 2 5 4 1 7 6 16 4 6 8 4 4 6 8 8 32 15 18 28 14 10 5
7 9 3 2 9 5 9 4 4 6 6 3 5 1 10 11 5 9 3 5 1 6 2 5 33 9 15 25 8 7 2 7
8 6 8 10 2 5 10 9 7 11 5 15 9 10 10 8 8 5 4 3 0 -1 -2 46 2 9 23 10 6 3 1 9
4 8 12 13 9 13 14 30 25 18 8 10 15 10 9 4 7 7 7 3 6 1 28 4 -1 27 16 6 1 1 14 8
12 4 4 7 8 6 4 8 15 14 11 10 6 10 8 16 8 8 2 7 9 22 13 -15 20 27 5 5 -2 16 8 8
4 9 8 9 8 13 15 13 12 5 3 4 6 9 2 -7 5 3 6 44 -0 11 -7 13 43 7 4 2 14 10 10 9
Height
3139 3140 3142 3144 3147 3147 3148 3150 3152 3153 3155 3157 3159 3158 3159 3160 3160 3161 3161 3160 3159 3158 3156 3155 3154 3151 3149 3147 3145 3142 3139 3134
3139 3140 3142 3144 3146 3148 3149 3150 3152 3153 3154 3155 3157 3158 3158 3158 3158 3158 3157 3157 3157 3155 3154 3153 3151 3149 3146 3143 3141 3137 3133 3130
3139 3140 3142 3143 3145 3145 3147 3149 3150 3151 3152 3153 3154 3154 3155 3155 3156 3156 3155 3154 3153 3152 3151 3149 3147 3146 3143 3139 3136 3132 3128 3124
3138 3140 3140 3141 3141 3143 3145 3146 3148 3149 3149 3150 3151 3152 3153 3153 3154 3153 3152 3150 3149 3148 3146 3144 3142 3140 3136 3132 3129 3124 3119 3116
3136 3138 3139 3140 3140 3142 3143 3145 3145 3145 3146 3146 3147 3148 3149 3150 3150 3150 3149 3147 3145 3143 3140 3138 3135 3131 3127 3124 3119 3115 3111 3107
3131 3133 3136 3137 3138 3138 3140 3140 3140 3141 3142 3143 3143 3143 3145 3146 3146 3145 3143 3141 3139 3137 3133 3130 3125 3121 3118 3115 3111 3106 3103 3099
3127 3130 3131 3133 3134 3135 3136 3136 3138 3138 3139 3138 3138 3139 3139 3140 3140 3138 3137 3135 3132 3129 3125 3120 3117 3113 3111 3106 3102 3098 3094 3090
3122 3125 3126 3129 3130 3131 3131 3132 3132 3133 3133 3133 3133 3133 3133 3135 3134 3132 3129 3127 3124 3120 3116 3112 3108 3106 3103 3098 3093 3088 3084 3080
3119 3120 3123 3125 3127 3129 3129 3129 3128 3128 3128 3127 3127 3127 3126 3126 3125 3123 3121 3118 3114 3110 3106 3102 3100 3098 3094 3087 3083 3078 3074 3071
3115 3117 3118 3121 3123 3123 3125 3126 3126 3125 3123 3123 3121 3121 3120 3119 3118 3115 3112 3109 3106 3103 3100 3096 3094 3088 3084 3079 3073 3069 3066 3062
3111 3113 3115 3117 3118 3119 3119 3120 3120 3119 3117 3117 3117 3116 3114 3112 3111 3109 3106 3103 3100 3096 3092 3089 3085 3081 3077 3072 3066 3063 3059 3054
3108 3109 3110 3111 3113 3113 3114 3114 3113 3113 3112 3112 3110 3109 3109 3107 3105 3103 3100 3098 3094 3091 3086 3082 3078 3073 3069 3064 3060 3055 3050 3046
3106 3106 3106 3107 3109 3110 3110 3109 3108 3108 3106 3105 3105 3104 3103 3100 3099 3097 3095 3092 3088 3084 3079 3074 3070 3065 3060 3056 3051 3046 3042 3039
3104 3105 3106 3106 3107 3106 3106 3105 3104 3102 3101 3101 3100 3098 3096 3094 3092 3090 3087 3083 3080 3075 3071 3066 3061 3056 3052 3048 3043 3039 3035 3030
3101 3102 3103 3103 3102 3101 3100 3100 3098 3096 3096 3094 3093 3091 3089 3087 3085 3082 3079 3074 3071 3066 3061 3056 3051 3047 3043 3040 3037 3034 3029 3024
3096 3097 3097 3097 3096 3094 3094 3091 3089 3088 3087 3086 3085 3083 3082 3079 3077 3073 3068 3064 3059 3054 3049 3046 3042 3039 3036 3033 3029 3026 3022 3017
3091 3092 3092 3091 3090 3088 3086 3084 3083 3081 3080 3079 3077 3076 3073 3070 3066 3063 3058 3053 3047 3042 3039 3039 3037 3032 3029 3026 3022 3018 3015 3011
3089 3088 3087 3086 3084 3081 3078 3075 3074 3073 3072 3071 3070 3067 3064 3059 3056 3051 3046 3041 3036 3034 3034 3033 3029 3025 3023 3019 3015 3011 3007 3004
3083 3082 3080 3077 3075 3073 3071 3069 3067 3065 3064 3062 3060 3058 3054 3050 3045 3041 3036 3030 3030 3029 3030 3025 3021 3019 3016 3012 3008 3004 3000 2996